Back to catalog

STARLINK-37901

AliveCommunicationsVLEO
NORAD 69960·PAYLOAD·🇺🇸 United States

Launched Jul 9, 2026 from Cape Canaveral Space Force Station

Loading…

Next Passes (next 24 hours)

TLE

FreshSource: CelesTrak SupGP

Epoch: Sep 14, 2026, 15:32 UTC

1 69960C 26157T   26257.64770833 -.00119850  00000+0 -35433-2 0  2573
2 69960  53.1587   1.2799 0001425  91.8706 191.4718 15.34428796    13

Track STARLINK-37901 in real time with AllMySat

Download on the App Store